Temp
11 11 11 11 11 11 11 11 12 11 11 12 12 12 12 12 12 12 13 12 12 12 12 12 12 12 12 12 12 13 13 14 15 14 14 14 14 15 15 15 15 15 16 15 14
10 11 11 11 11 11 11 11 11 12 12 12 12 12 12 12 12 12 12 13 13 13 12 12 12 12 12 12 12 12 13 13 15 14 14 14 14 14 15 15 15 16 16 15 15
10 11 11 11 11 11 11 11 11 12 12 12 12 12 12 12 12 13 13 13 13 13 13 13 13 12 13 12 12 13 13 13 14 14 14 15 14 14 15 16 16 16 16 15 15
11 11 11 11 11 11 11 11 12 12 12 12 12 12 12 12 11 11 12 12 13 13 13 13 13 13 13 13 13 13 13 13 15 14 15 14 14 15 15 15 15 15 15 15 15
10 10 11 11 11 11 11 11 11 11 12 12 12 12 12 12 11 11 11 12 13 13 13 13 13 13 13 13 13 13 13 13 14 15 15 14 14 15 15 15 15 14 15 14 13
10 10 11 11 11 11 11 11 11 11 11 12 12 12 12 12 12 12 12 12 12 12 13 13 13 12 13 13 13 13 13 14 14 15 15 15 14 15 15 14 14 14 14 14 15
10 10 11 11 11 11 11 11 11 11 11 11 11 12 12 11 12 12 12 12 12 12 12 12 12 12 12 13 13 13 13 14 14 15 15 15 14 15 15 15 14 14 14 13 13
10 10 11 11 11 11 11 11 11 11 11 11 11 12 12 12 12 12 11 12 12 12 12 11 11 11 12 12 12 12 13 14 14 14 15 15 15 15 15 14 14 14 13 13 13
10 10 10 10 10 10 11 11 11 11 11 11 11 11 11 12 12 11 11 11 12 11 11 11 11 11 11 12 12 12 12 13 14 14 14 14 15 15 15 15 14 14 14 14 14
10 10 10 10 10 10 10 11 11 11 11 11 11 11 11 11 11 11 11 11 11 10 10 11 11 11 11 12 12 13 12 13 13 14 14 14 14 15 15 14 15 14 14 14 14
9 10 10 10 10 10 10 10 10 10 11 11 11 11 11 11 11 11 10 10 10 10 10 10 10 11 12 12 12 12 12 12 14 14 14 14 14 15 15 15 14 14 14 14 14
9 9 9 9 9 9 9 9 10 10 12 11 11 12 11 10 11 11 11 10 10 10 10 10 11 11 11 11 11 11 11 13 13 14 13 14 14 15 15 15 15 15 15 14 14
9 9 9 9 9 9 9 9 9 10 11 12 12 12 11 11 11 11 11 10 10 9 9 10 11 10 10 11 10 10 11 12 12 13 13 13 14 15 15 16 15 15 15 15 14
9 9 9 8 8 9 9 9 9 9 10 11 12 11 12 12 11 10 10 10 10 10 9 9 10 11 11 10 11 11 12 12 12 12 12 13 13 14 15 15 14 15 15 15 14
9 9 9 9 9 8 8 8 9 9 8 11 11 11 11 11 11 11 10 10 10 10 9 10 10 10 11 11 10 10 11 11 11 12 12 12 13 14 14 14 14 14 14 14 14
9 9 9 9 8 8 8 8 9 8 9 10 10 10 10 10 11 10 10 10 10 10 10 10 10 10 10 11 11 11 11 11 11 11 9 12 12 13 14 14 14 14 14 14 14
9 9 9 9 8 8 8 8 8 8 9 9 9 10 10 10 10 10 10 9 9 9 9 10 10 11 11 10 11 10 11 10 8 8 8 13 12 13 14 14 14 14 14 14 14
9 9 10 9 9 8 8 8 8 6 7 7 8 9 9 9 9 10 10 9 7 7 8 8 9 10 11 11 11 11 11 10 7 6 9 12 11 13 13 14 14 13 13 13 13
9 9 9 9 9 8 8 7 5 6 5 6 7 8 8 8 8 8 7 6 5 5 5 6 8 9 9 10 10 10 10 11 11 10 8 10 12 12 13 13 13 13 13 13 13
9 9 8 8 8 8 8 6 4 4 5 5 6 7 6 6 6 6 5 3 4 3 2 2 3 8 8 9 10 10 10 10 9 7 6 8 11 12 13 13 13 13 13 13 14
9 9 8 8 8 8 7 5 3 4 4 4 4 5 4 3 3 3 2 1 2 2 1 1 1 5 7 8 9 9 10 10 10 10 8 8 10 11 12 12 12 13 13 13 13
9 8 8 8 7 7 4 5 3 2 2 2 2 2 2 2 2 1 1 -1 -1 -2 -0 -0 0 -0 3 6 7 6 6 7 6 7 8 8 9 11 12 12 12 13 13 13 13
8 8 8 7 7 5 4 2 2 2 2 2 1 0 -1 -0 0 -1 -1 -2 -2 -1 -1 -2 -1 -2 2 5 6 5 3 1 1 2 5 5 8 10 10 11 11 12 12 12 12
8 7 6 6 4 3 2 1 0 -1 -1 -1 -1 -1 -1 -2 -3 -2 -2 -2 -2 -2 -3 -4 -4 -4 -3 -2 -2 -1 -1 -1 -2 -1 1 2 5 7 8 9 10 11 11 10 10
7 5 4 2 3 2 1 -1 -1 -2 -3 -2 -2 -2 -3 -4 -3 -4 -3 -3 -3 -3 -4 -5 -6 -5 -5 -5 -5 -4 -2 -1 -2 -1 -0 2 3 5 6 7 8 8 9 9 9
6 5 2 1 -1 -1 -0 -2 -2 -4 -2 -2 -3 -4 -4 -4 -5 -5 -5 -4 -5 -5 -5 -5 -6 -6 -5 -5 -4 -5 -5 -2 -0 -0 0 2 3 4 5 6 7 7 7 7 8
4 2 1 -1 -1 -1 -2 -3 -3 -3 -4 -4 -3 -3 -3 -3 -3 -4 -4 -4 -5 -6 -6 -6 -7 -6 -6 -5 -6 -6 -4 -4 -2 -1 0 2 3 4 5 6 7 7 7 7 8
Height
3149 3148 3148 3148 3147 3148 3148 3148 3149 3149 3150 3150 3150 3151 3151 3151 3153 3154 3155 3156 3157 3159 3162 3166 3168 3169 3172 3175 3176 3177 3178 3180 3181 3180 3180 3180 3182 3183 3182 3182 3182 3182 3184 3186 3185
3148 3148 3147 3147 3146 3146 3146 3146 3147 3147 3148 3148 3148 3149 3149 3150 3150 3151 3154 3154 3155 3157 3159 3162 3164 3168 3170 3173 3175 3175 3175 3178 3180 3180 3180 3180 3182 3183 3183 3181 3181 3183 3184 3185 3185
3147 3147 3146 3145 3145 3145 3144 3144 3145 3145 3146 3146 3147 3148 3148 3149 3150 3149 3150 3151 3152 3155 3156 3159 3162 3165 3168 3170 3173 3172 3173 3177 3179 3180 3181 3180 3180 3181 3182 3181 3182 3183 3184 3185 3186
3146 3145 3144 3143 3143 3143 3143 3143 3143 3144 3144 3145 3145 3146 3147 3148 3151 3148 3148 3150 3151 3153 3155 3157 3160 3163 3165 3168 3171 3171 3172 3175 3177 3179 3179 3181 3180 3180 3182 3182 3182 3182 3183 3183 3185
3145 3143 3142 3142 3141 3141 3141 3141 3141 3142 3142 3143 3143 3144 3145 3147 3148 3147 3147 3148 3149 3151 3153 3155 3158 3161 3163 3166 3168 3167 3170 3173 3173 3175 3176 3177 3176 3179 3179 3180 3180 3180 3180 3181 3182
3143 3142 3141 3140 3140 3139 3139 3139 3140 3140 3140 3141 3141 3142 3144 3146 3145 3146 3147 3147 3148 3149 3151 3154 3156 3158 3160 3162 3164 3165 3165 3167 3170 3171 3171 3174 3174 3176 3177 3177 3178 3178 3178 3177 3179
3142 3140 3139 3139 3138 3137 3137 3137 3138 3138 3139 3139 3139 3140 3141 3143 3142 3144 3146 3146 3147 3148 3150 3152 3154 3156 3156 3158 3160 3160 3161 3163 3167 3170 3170 3170 3172 3172 3175 3174 3176 3176 3177 3176 3176
3141 3139 3138 3138 3137 3136 3136 3136 3136 3136 3136 3137 3138 3139 3139 3139 3142 3144 3144 3145 3146 3147 3148 3149 3150 3152 3154 3156 3157 3158 3159 3161 3166 3167 3168 3168 3166 3169 3171 3171 3172 3173 3174 3175 3175
3140 3138 3137 3136 3135 3135 3134 3134 3134 3134 3134 3135 3136 3137 3138 3139 3140 3141 3142 3143 3144 3145 3147 3147 3148 3150 3153 3154 3155 3156 3156 3158 3161 3164 3165 3165 3163 3165 3167 3168 3169 3169 3169 3171 3173
3138 3136 3135 3135 3134 3133 3133 3133 3132 3132 3133 3133 3134 3137 3137 3135 3136 3138 3140 3141 3143 3144 3146 3147 3147 3148 3150 3152 3152 3154 3155 3155 3156 3161 3160 3159 3156 3159 3161 3162 3163 3164 3165 3167 3168
3137 3136 3134 3134 3133 3132 3133 3133 3135 3133 3131 3131 3132 3133 3133 3134 3135 3137 3138 3139 3140 3142 3144 3146 3146 3144 3149 3151 3152 3152 3152 3152 3152 3157 3156 3154 3153 3153 3156 3155 3157 3158 3158 3160 3163
3137 3135 3134 3133 3132 3132 3132 3131 3130 3131 3129 3129 3128 3129 3130 3132 3133 3135 3136 3138 3138 3140 3142 3144 3140 3145 3147 3148 3148 3148 3148 3147 3147 3153 3154 3151 3148 3145 3143 3145 3149 3151 3152 3154 3157
3136 3135 3133 3133 3132 3131 3130 3130 3129 3129 3128 3127 3127 3126 3128 3130 3132 3134 3135 3136 3137 3138 3139 3138 3140 3141 3142 3143 3144 3145 3146 3145 3147 3145 3147 3146 3141 3141 3137 3137 3143 3147 3150 3151 3154
3136 3135 3133 3132 3134 3131 3131 3130 3129 3129 3128 3130 3128 3128 3128 3128 3131 3132 3133 3136 3135 3136 3137 3135 3135 3137 3138 3139 3141 3140 3145 3145 3144 3143 3142 3142 3137 3135 3135 3135 3139 3143 3146 3148 3149
3135 3134 3133 3132 3132 3132 3132 3130 3129 3129 3130 3132 3131 3130 3130 3132 3133 3132 3132 3133 3133 3133 3135 3131 3133 3135 3135 3136 3138 3137 3139 3140 3139 3137 3137 3135 3135 3132 3132 3133 3136 3139 3141 3143 3145
3135 3133 3132 3132 3131 3131 3129 3129 3130 3131 3130 3131 3131 3131 3130 3131 3132 3133 3133 3133 3133 3130 3129 3127 3130 3131 3131 3132 3134 3136 3134 3134 3133 3132 3127 3129 3130 3125 3127 3130 3133 3135 3138 3138 3140
3134 3133 3131 3130 3130 3128 3129 3129 3131 3130 3132 3132 3130 3130 3130 3129 3130 3129 3130 3130 3129 3126 3124 3124 3123 3126 3127 3127 3128 3129 3131 3129 3128 3126 3121 3122 3118 3116 3121 3123 3126 3129 3132 3133 3134
3133 3131 3130 3129 3128 3128 3128 3130 3130 3131 3129 3129 3129 3129 3129 3128 3128 3128 3128 3125 3124 3122 3121 3119 3116 3119 3122 3122 3122 3122 3125 3125 3126 3123 3115 3114 3104 3106 3114 3117 3119 3120 3123 3125 3127
3132 3130 3128 3128 3127 3127 3127 3127 3129 3130 3129 3128 3128 3127 3127 3127 3128 3126 3124 3124 3122 3120 3121 3115 3110 3112 3115 3117 3119 3118 3115 3120 3114 3113 3111 3104 3100 3102 3107 3109 3111 3111 3112 3113 3115
3130 3128 3127 3127 3126 3126 3126 3126 3129 3128 3129 3127 3127 3126 3124 3124 3125 3124 3122 3123 3121 3120 3120 3116 3106 3107 3107 3110 3112 3112 3113 3112 3109 3109 3107 3095 3093 3092 3098 3100 3102 3102 3103 3105 3106
3128 3127 3126 3125 3125 3124 3124 3125 3126 3126 3126 3127 3126 3125 3124 3123 3123 3123 3121 3120 3119 3115 3115 3114 3108 3100 3104 3105 3105 3106 3104 3103 3101 3097 3094 3093 3085 3088 3090 3092 3093 3095 3095 3097 3098
3125 3125 3124 3123 3124 3122 3122 3123 3124 3124 3124 3123 3123 3122 3122 3122 3122 3121 3120 3118 3115 3111 3108 3108 3103 3093 3093 3098 3099 3097 3096 3095 3095 3090 3088 3084 3076 3082 3083 3085 3086 3086 3087 3088 3089
3123 3122 3122 3121 3121 3120 3120 3121 3122 3122 3122 3121 3121 3120 3119 3120 3122 3118 3117 3115 3113 3111 3107 3101 3102 3091 3081 3088 3087 3088 3088 3090 3092 3089 3083 3084 3074 3079 3078 3078 3081 3081 3081 3081 3084
3122 3120 3120 3119 3119 3120 3120 3120 3120 3120 3119 3120 3121 3120 3118 3116 3116 3116 3115 3114 3112 3109 3105 3100 3098 3099 3094 3093 3092 3082 3081 3086 3092 3090 3081 3075 3072 3075 3074 3074 3073 3074 3075 3077 3080
3119 3116 3116 3118 3119 3120 3120 3121 3119 3119 3118 3119 3118 3117 3116 3114 3113 3111 3109 3107 3106 3105 3102 3098 3092 3091 3086 3084 3082 3080 3077 3078 3080 3081 3082 3065 3070 3068 3068 3065 3066 3067 3069 3071 3074
3118 3118 3117 3117 3119 3119 3119 3119 3120 3118 3119 3117 3116 3114 3113 3112 3110 3105 3104 3103 3100 3096 3095 3094 3089 3085 3077 3077 3074 3070 3070 3069 3068 3068 3069 3066 3064 3062 3062 3060 3061 3062 3063 3066 3069
3117 3118 3120 3121 3121 3121 3120 3121 3120 3120 3118 3116 3113 3111 3110 3109 3106 3105 3103 3100 3098 3095 3093 3092 3088 3083 3069 3070 3068 3064 3062 3059 3057 3058 3057 3058 3056 3056 3053 3053 3055 3056 3058 3062 3063
Wind_Speed
4 4 5 6 6 7 9 9 9 10 9 8 8 8 8 10 11 12 11 14 16 15 19 21 28 28 21 15 13 11 10 4 4 9 13 5 16 12 5 7 6 14 18 15 17
5 5 5 6 6 7 8 8 9 9 9 8 8 8 7 6 8 11 12 14 14 14 16 21 26 33 29 21 18 17 15 7 6 8 12 2 8 5 11 8 11 22 17 14 13
5 5 6 6 7 7 7 8 8 9 9 9 10 8 7 6 6 8 12 14 15 14 16 19 24 29 33 28 23 24 21 14 6 3 8 6 7 5 8 11 9 11 7 8 11
5 6 6 7 7 7 8 8 8 8 8 10 10 9 8 6 3 6 9 13 15 14 15 18 21 25 31 31 28 27 26 19 11 4 4 7 7 4 7 6 9 11 5 8 8
6 6 6 6 7 8 7 8 8 8 8 8 10 11 10 8 7 6 7 11 14 14 14 16 18 21 25 28 28 28 28 21 18 10 8 10 14 9 8 15 15 13 9 9 9
7 6 6 6 7 8 7 8 9 8 9 9 9 9 10 8 12 11 9 9 12 13 13 14 16 17 20 24 27 28 18 27 20 16 12 8 10 10 7 21 19 15 10 11 3
8 7 6 6 5 7 8 7 8 8 9 10 10 8 7 7 13 8 6 8 11 12 11 12 16 17 17 21 25 26 25 24 26 21 15 13 15 17 12 17 18 16 17 16 12
8 7 7 6 6 5 7 8 8 8 9 10 10 8 5 10 7 6 8 7 8 9 15 19 20 22 20 17 21 23 24 25 24 16 11 13 21 20 13 18 20 20 20 21 17
9 7 6 6 5 5 4 7 9 9 10 11 10 9 6 6 3 8 7 8 8 10 14 20 22 22 22 21 23 20 19 18 23 13 13 18 24 27 19 22 25 25 23 22 18
9 8 6 4 4 4 4 4 6 9 11 11 11 8 7 9 10 8 6 10 9 11 17 20 23 24 25 23 24 21 17 21 20 20 13 16 27 27 26 23 24 28 26 26 25
8 7 5 3 2 3 3 2 3 6 9 10 12 4 8 11 9 7 7 10 14 15 19 21 24 28 20 17 20 24 23 22 28 19 20 19 21 27 27 29 28 32 31 32 28
8 5 4 2 2 3 4 4 7 10 9 9 12 10 15 13 12 10 12 13 18 16 14 16 25 22 20 20 19 22 27 29 29 19 19 23 24 29 29 38 39 34 30 34 32
8 6 4 1 2 4 6 7 8 9 12 4 5 3 14 18 11 9 11 4 12 16 15 18 13 6 15 16 16 17 22 25 25 23 26 25 27 30 20 31 36 34 32 30 31
8 6 4 2 2 4 5 6 6 6 3 9 7 10 4 13 10 11 11 4 9 12 15 18 18 17 20 18 14 17 18 21 24 29 26 18 16 22 15 22 36 37 37 37 36
7 5 4 3 4 3 6 5 5 1 3 3 7 6 4 10 5 6 3 11 14 12 14 22 17 12 13 20 15 22 18 19 24 27 31 30 14 20 21 17 28 42 41 42 43
6 5 4 3 2 4 5 5 2 1 3 4 4 4 4 4 5 9 5 10 17 21 25 25 22 21 18 23 25 23 27 27 28 26 16 27 26 28 32 27 22 20 42 44 46
6 6 5 4 5 3 3 1 1 4 5 2 3 5 3 2 3 5 6 17 17 17 25 30 32 25 23 27 21 27 28 12 9 7 8 21 24 27 31 29 28 27 24 30 47
6 7 9 7 6 5 2 3 2 2 5 8 10 10 5 1 3 1 2 8 2 7 14 20 27 29 28 28 25 27 25 16 6 4 11 30 17 33 34 35 32 31 28 28 30
9 9 7 4 5 4 5 4 2 2 7 13 11 9 6 5 6 7 7 3 7 10 11 11 14 22 25 28 19 23 26 24 28 16 15 18 38 41 37 36 33 33 35 29 31
8 7 6 7 7 5 8 8 5 3 5 8 7 9 10 13 10 9 7 10 12 11 10 10 22 20 22 22 27 28 30 29 14 4 8 8 19 24 25 30 33 36 29 29 28
9 8 7 12 10 7 10 9 6 7 7 7 6 8 12 13 13 11 6 12 17 23 23 22 16 25 22 15 18 25 24 22 23 26 9 11 15 25 28 30 35 35 34 34 38
10 11 8 11 9 9 10 7 11 7 9 7 7 9 13 15 12 10 10 11 21 27 30 19 17 21 34 30 19 21 16 14 6 10 10 15 25 27 26 16 16 26 37 35 32
10 10 9 7 7 11 10 9 9 14 14 12 12 14 17 15 7 8 10 20 21 27 26 30 13 21 25 15 17 21 13 3 13 7 21 7 17 23 23 25 26 27 25 28 28
8 7 5 4 5 5 6 5 7 9 13 11 10 13 12 13 15 6 15 15 19 23 24 24 15 14 20 24 31 45 41 38 22 15 19 26 21 15 18 20 27 29 30 20 16
7 4 3 4 2 3 3 4 8 7 11 13 12 15 18 17 20 15 25 27 26 25 21 19 22 26 25 24 26 32 42 41 28 26 27 41 34 26 23 25 24 23 28 33 31
4 2 4 10 11 8 6 10 10 13 13 16 16 19 20 21 20 26 26 23 28 26 16 16 17 24 33 34 27 25 23 29 39 37 31 34 31 35 31 26 19 27 27 30 33
9 6 5 9 9 2 12 12 12 10 10 16 18 19 21 20 18 20 19 22 18 11 9 10 22 29 31 25 16 20 8 11 20 24 22 29 29 27 29 29 25 23 21 22 26
Wind_Direction
307 287 272 259 247 241 238 237 234 233 231 233 236 239 241 243 243 238 229 222 223 216 212 211 208 214 220 219 228 242 257 210 110 35 26 320 187 172 178 177 186 135 148 139 156
302 285 275 265 255 245 242 242 242 240 240 240 243 246 250 253 249 237 227 227 224 211 208 205 211 213 220 224 229 240 248 248 145 37 10 37 184 274 173 166 167 145 150 122 142
296 286 276 268 259 254 253 249 247 245 244 245 246 247 249 253 257 233 220 218 220 209 208 205 206 211 218 224 226 235 242 238 169 30 1 195 198 180 172 149 141 167 170 169 129
311 292 278 272 268 259 251 250 249 249 250 250 250 250 247 245 242 231 218 218 218 216 210 208 208 209 215 226 228 241 241 240 198 251 289 304 270 174 216 208 173 167 185 168 124
314 308 294 276 270 264 259 256 253 251 252 254 253 250 248 237 216 198 219 223 219 217 214 211 212 208 213 224 231 241 242 242 248 236 248 291 230 257 246 180 176 178 176 166 166
315 305 306 299 271 261 258 257 254 250 250 252 255 256 251 242 238 229 247 235 220 213 215 215 212 210 214 219 228 234 236 239 230 243 245 251 234 244 246 187 185 187 182 188 229
321 309 295 296 302 267 256 256 257 253 254 255 257 260 258 223 234 229 240 234 217 207 207 200 199 204 214 215 223 236 243 233 237 244 246 259 246 244 257 221 200 191 185 202 209
325 312 297 283 291 306 260 250 254 258 258 260 262 263 245 243 254 239 241 215 204 196 192 184 194 206 215 215 217 228 238 238 231 229 243 260 259 248 256 237 221 207 198 202 211
326 318 301 289 276 284 281 251 247 251 259 261 262 259 244 248 164 209 222 213 196 186 190 189 203 209 216 220 225 226 243 242 230 234 249 255 261 250 255 254 231 229 232 237 228
319 319 310 287 285 285 289 282 270 264 263 271 270 257 222 207 193 196 202 208 181 191 195 205 214 217 218 220 231 227 253 252 250 241 262 271 265 253 251 260 248 231 233 238 249
325 317 314 286 272 264 264 259 302 287 286 281 266 248 208 218 215 201 188 215 208 201 198 215 226 229 234 239 249 249 254 258 246 248 280 283 275 259 251 253 238 239 236 241 243
346 334 324 286 241 230 228 262 283 300 301 285 272 253 214 214 220 205 203 212 218 217 219 229 240 241 244 246 254 249 251 248 256 258 285 300 276 274 280 236 241 242 237 242 241
355 354 347 294 212 208 229 257 287 316 325 19 12 301 214 225 233 220 237 225 238 232 233 243 241 206 236 239 252 247 246 252 265 278 294 295 274 279 284 223 229 236 241 245 247
345 351 347 306 260 299 302 292 286 322 36 43 41 39 238 235 260 250 245 237 244 245 245 263 262 255 241 246 245 266 236 262 281 290 287 288 273 280 274 239 226 235 238 239 240
337 327 325 321 331 348 324 303 295 349 50 48 32 39 26 218 112 20 247 241 267 271 248 259 275 281 252 237 267 278 276 291 295 297 287 274 248 272 267 252 240 230 233 239 243
345 333 315 316 343 312 312 321 341 50 14 86 87 62 313 290 301 296 289 263 267 270 268 279 278 271 268 254 272 280 282 286 293 288 258 270 254 259 265 264 261 255 242 243 246
333 329 302 275 252 291 322 264 121 26 353 27 35 24 70 170 210 281 245 234 248 267 257 271 274 280 275 275 272 275 274 287 292 262 244 279 261 257 269 270 272 267 262 258 251
328 317 303 287 268 260 234 177 124 41 318 293 322 333 316 344 283 295 226 209 221 291 281 278 279 269 274 263 270 276 267 235 244 251 285 287 253 270 272 273 277 276 268 265 251
303 321 312 263 270 244 190 152 82 314 328 310 318 308 229 229 327 329 333 346 314 335 347 314 265 261 255 258 260 267 268 275 259 274 262 259 274 276 270 269 277 276 274 266 265
306 305 264 255 266 232 185 155 199 295 301 301 305 286 292 311 332 314 320 308 301 315 324 297 295 283 285 272 261 260 275 265 249 217 252 249 254 254 266 271 274 279 272 265 259
308 289 269 254 271 252 186 180 235 277 297 291 295 279 301 326 331 326 304 285 280 299 317 312 291 273 267 268 281 272 268 266 260 252 250 267 264 272 267 273 268 267 265 268 273
295 276 269 273 257 231 180 224 245 276 305 319 308 305 305 310 318 306 296 302 309 320 320 320 308 288 279 257 248 262 278 247 276 278 266 263 266 266 266 255 250 256 255 259 257
280 280 281 264 243 239 212 237 272 291 295 306 317 321 334 336 334 283 294 311 318 324 319 319 299 317 305 280 247 242 243 285 314 302 264 254 267 271 265 247 265 270 262 251 257
269 269 280 267 207 219 225 279 323 334 328 347 352 346 357 356 352 313 315 312 325 334 330 320 295 274 267 277 285 287 283 296 312 299 305 286 293 292 252 255 257 260 259 259 255
270 296 316 38 44 344 311 9 358 19 8 20 358 2 351 344 342 328 327 329 331 333 327 315 303 306 299 291 276 282 280 285 282 278 283 283 285 282 281 256 245 254 263 266 260
309 277 38 29 22 358 26 50 49 14 3 354 347 342 335 332 326 322 326 334 328 327 324 312 300 307 302 300 305 276 275 268 271 275 269 281 273 267 271 272 264 242 242 252 260
37 44 37 47 30 18 54 29 15 7 328 334 327 319 322 327 327 332 331 324 316 325 2 345 327 316 294 306 304 291 302 279 261 258 257 254 257 252 251 255 258 243 232 264 263